User: anonymous
Location: Unspecified
(0.0000°N, 0.0000°E)
Time: 05:46:51
(UTC+00:00)
Language:

GOSAT - Orbit

View from above orbital plane
View from above orbital plane
View from above satellite
View from above satellite

Ground track
Ground track

The orbit data is extracted from the following two-line orbital elements,

1 33492U 09002A   14203.79329014  .00000142  00000-0  33510-4 0  7527
2 33492 098.0538 312.7666 0001735 075.8820 284.2594 14.67555523294308
Epoch (UTC): 22 July 2014 19:02:20
Eccentricity: 0.0001735
inclination: 98.0538°
perigee height: 667 km
apogee height: 670 km
right ascension of ascending node: 312.7666°
argument of perigee: 75.8820°
revolutions per day: 14.67555523
mean anomaly at epoch: 284.2594°
orbit number at epoch: 29430

The dashed part of the orbit path shows where the satellite is in the earth's shadow,  

DLR